User: anonymous   Login
Location: Black Swamp Observatory
(41.3920°N, 84.1250°W)
Time: 05:39:23
(UTC-05:00)
Language:

S-56A Canister/Altair - Orbit

View from above orbital plane
View from above orbital plane
View from above satellite
View from above satellite

Ground track
Ground track

The orbit data is extracted from the following two-line orbital elements,

1 00082U 61004B   22018.82648066 -.00000001  00000-0  43856-4 0  9996
2 00082  38.8534 209.3768 1174221   4.4539 356.5609 12.26009713879044
Epoch (UTC): 18 January 2022 19:50:07
Eccentricity: 0.1174221
inclination: 38.8534°
perigee height: 633 km
apogee height: 2499 km
right ascension of ascending node: 209.3768°
argument of perigee: 4.4539°
revolutions per day: 12.26009713
mean anomaly at epoch: 356.5609°
orbit number at epoch: 87904

The dashed part of the orbit path shows where the satellite is in the earth's shadow,  

DLR